Location: Trebic
(49.2170°N, 15.8830°E)
Time: 12:56:50
(UTC+02:00)

Transit 4A - Pass Details

Date: 03 September 2019
Orbit: 865 x 980 km, 66.8° (Epoch: 18 September)

Event Time Altitude Azimuth Distance (km) Brightness Sun altitude
Rises 16:25:48 0° 206° (SSW) 3,666 11.7 29.6°
Reaches altitude 10° 16:28:22 10° 204° (SSW) 2,724 11.2 29.2°
Maximum altitude 16:34:43 73° 121° (ESE) 1,024 8.5 28.2°
Drops below altitude 10° 16:41:04 10° 39° (NE) 2,714 9.9 27.3°
Sets 16:43:37 0° 37° (NE) 3,651 10.5 26.9°
